TG5ALY-16 Weather Reports


time (UTC)temp
C
wind
direction
speed
KPH
gust
KPH
rain 1hr
cm
rain 24hr
cm
rain mn
cm
humidity
%
barometer
mb
20260502195637 23 140 9.7 0.0 0.00 0.00 0.00 38 1012.0
20260502194636 23 140 9.7 0.0 0.00 0.00 0.00 38 1012.0
20260502193635 24 140 9.7 0.0 0.00 0.00 0.00 36 1012.0
20260502192635 24 140 9.7 0.0 0.00 0.00 0.00 36 1013.0
20260502191634 24 140 9.7 0.0 0.00 0.00 0.00 35 1013.0
20260502190633 24 140 9.7 0.0 0.00 0.00 0.00 35 1013.0
20260502185633 25 360 14.5 0.0 0.00 0.00 0.00 35 1013.0
20260502184632 25 360 14.5 0.0 0.00 0.00 0.00 35 1013.0
20260502183631 24 360 14.5 0.0 0.00 0.00 0.00 35 1013.0
20260502182631 24 360 14.5 0.0 0.00 0.00 0.00 34 1014.0
20260502181630 24 360 14.5 0.0 0.00 0.00 0.00 33 1014.0
20260502180629 24 360 14.5 0.0 0.00 0.00 0.00 33 1014.0
20260502163623 21 306 4.8 4.8 0.00 0.00 0.00 45 1015.0
20260502162622 21 306 4.8 4.8 0.00 0.00 0.00 45 1016.0
20260502161622 20 246 8.0 8.0 0.00 0.00 0.00 44 1016.0
20260502160621 20 246 8.0 8.0 0.00 0.00 0.00 44 1016.0
20260502151618 17 0 0.0 0.0 0.00 0.00 0.00 60 1016.0
20260502150617 14 0 0.0 0.0 0.00 0.00 0.00 63 1016.0
20260502130609 11 194 1.6 1.6 0.00 0.00 0.00 79 1017.0
20260502123607 8 198 1.6 1.6 0.00 0.00 0.00 88 1017.0
20260502122606 8 198 1.6 1.6 0.00 0.00 0.00 90 1017.0
20260502121605 9 198 1.6 1.6 0.00 0.00 0.00 89 1017.0
20260502120605 9 198 1.6 1.6 0.00 0.00 0.00 88 1017.0
20260502115604 9 198 4.8 4.8 0.00 0.00 0.00 86 1017.0
20260502114604 9 198 4.8 4.8 0.00 0.00 0.00 86 1017.0
20260502113603 8 226 3.2 6.4 0.00 0.00 0.00 88 1017.0
20260502112602 8 215 4.8 6.4 0.00 0.00 0.00 88 1016.0
20260502111602 10 215 4.8 6.4 0.00 0.00 0.00 86 1016.0
20260502110601 10 215 4.8 6.4 0.00 0.00 0.00 85 1016.0
20260502105600 10 198 4.8 4.8 0.00 0.00 0.00 83 1017.0
20260502104600 10 198 4.8 4.8 0.00 0.00 0.00 83 1017.0
20260502103559 10 198 1.6 1.6 0.00 0.00 0.00 82 1017.0
20260502102558 10 198 1.6 1.6 0.00 0.00 0.00 83 1016.0
20260502101557 10 218 4.8 6.4 0.00 0.00 0.00 86 1016.0
20260502100557 10 218 4.8 6.4 0.00 0.00 0.00 86 1016.0
20260502090552 11 219 6.4 6.4 0.00 0.00 0.00 86 1016.0
20260502070544 11 312 1.6 1.6 0.00 0.00 0.00 91 1017.0
20260502065544 12 312 1.6 1.6 0.00 0.00 0.00 93 1017.0
20260502064543 12 312 1.6 1.6 0.00 0.00 0.00 93 1017.0
20260502063542 12 212 6.4 4.8 0.00 0.00 0.00 93 1017.0
20260502062541 12 219 4.8 4.8 0.00 0.00 0.00 93 1017.0
20260502061541 12 219 4.8 4.8 0.00 0.00 0.00 92 1017.0
20260502060540 12 219 4.8 4.8 0.00 0.00 0.00 92 1017.0
20260502055540 12 312 4.8 4.8 0.00 0.00 0.00 92 1017.0
20260502054539 12 219 4.8 4.8 0.00 0.00 0.00 91 1017.0
20260502053538 12 219 4.8 4.8 0.00 0.00 0.00 91 1017.0
20260502052538 12 226 3.2 4.8 0.00 0.00 0.00 91 1017.0
20260502051537 13 312 1.6 1.6 0.00 0.00 0.00 90 1017.0
20260502050536 13 312 1.6 1.6 0.00 0.00 0.00 89 1017.0
20260502045536 13 318 1.6 1.6 0.00 0.00 0.00 87 1017.0
20260502044535 13 318 1.6 1.6 0.00 0.00 0.00 87 1017.0
20260502043531 14 282 1.6 1.6 0.00 0.00 0.00 86 1017.0
20260502042530 14 282 1.6 1.6 0.00 0.00 0.00 86 1017.0
20260502041530 14 227 3.2 3.2 0.00 0.00 0.00 87 1017.0
20260502040529 14 227 3.2 3.2 0.00 0.00 0.00 87 1017.0
20260502035528 14 198 1.6 1.6 0.00 0.00 0.00 86 1017.0
20260502034528 14 198 1.6 1.6 0.00 0.00 0.00 86 1017.0
20260502033527 15 227 3.2 3.2 0.00 0.00 0.00 84 1017.0
20260502032526 15 235 3.2 3.2 0.00 0.00 0.00 83 1016.0
20260502031525 15 168 1.6 1.6 0.00 0.00 0.00 79 1016.0
20260502030525 15 168 1.6 1.6 0.00 0.00 0.00 79 1016.0
20260502025524 15 144 1.6 1.6 0.00 0.00 0.00 77 1016.0
20260502024523 15 144 1.6 1.6 0.00 0.00 0.00 77 1016.0
20260502023523 15 144 1.6 1.6 0.00 0.00 0.00 76 1016.0
20260502022522 15 144 1.6 1.6 0.00 0.00 0.00 76 1015.0
20260502021521 15 126 6.4 6.4 0.00 0.00 0.00 76 1015.0
20260502020521 15 126 6.4 6.4 0.00 0.00 0.00 76 1015.0
20260502015520 15 156 1.6 1.6 0.00 0.00 0.00 76 1015.0
20260502014519 15 156 1.6 1.6 0.00 0.00 0.00 76 1015.0
20260502013519 16 102 1.6 1.6 0.00 0.00 0.00 76 1015.0
20260502012518 16 102 1.6 1.6 0.00 0.00 0.00 76 1014.0
20260502011517 16 162 1.6 1.6 0.00 0.00 0.00 75 1014.0
20260502010516 16 162 1.6 1.6 0.00 0.00 0.00 75 1014.0
20260502005516 16 96 8.0 8.0 0.00 0.00 0.00 74 1014.0
20260502004515 16 96 8.0 8.0 0.00 0.00 0.00 73 1014.0
20260502003515 17 114 8.0 8.0 0.00 0.00 0.00 70 1014.0
20260502002514 17 96 6.4 6.4 0.00 0.00 0.00 67 1013.0
20260502001513 17 96 6.4 6.4 0.00 0.00 0.00 67 1013.0
20260502000512 17 96 6.4 6.4 0.00 0.00 0.00 67 1013.0
20260501235512 18 140 9.7 0.0 0.00 0.00 0.00 67 1013.0
20260501234511 18 140 9.7 0.0 0.00 0.00 0.00 67 1013.0
20260501233510 18 140 9.7 0.0 0.00 0.00 0.00 64 1013.0
20260501232510 18 140 9.7 0.0 0.00 0.00 0.00 64 1012.0
20260501231509 19 140 9.7 0.0 0.00 0.00 0.00 62 1012.0
20260501230509 19 140 9.7 0.0 0.00 0.00 0.00 62 1012.0
20260501225508 19 132 11.3 11.3 0.00 0.00 0.00 62 1012.0
20260501224507 19 132 11.3 11.3 0.00 0.00 0.00 60 1012.0
20260501223506 21 0 0.0 0.0 0.00 0.00 0.00 53 1012.0
20260501222506 21 0 0.0 0.0 0.00 0.00 0.00 53 1012.0
20260501221505 21 0 0.0 0.0 0.00 0.00 0.00 53 1012.0
20260501220504 23 140 9.7 0.0 0.00 0.00 0.00 43 1012.0
20260501215504 23 140 9.7 0.0 0.00 0.00 0.00 43 1012.0
20260501214504 23 140 9.7 0.0 0.00 0.00 0.00 43 1012.0
20260501213503 23 140 9.7 0.0 0.00 0.00 0.00 43 1012.0
20260501212502 23 140 9.7 0.0 0.00 0.00 0.00 43 1012.0
20260501211501 23 140 9.7 0.0 0.00 0.00 0.00 43 1012.0
20260501210501 23 140 9.7 0.0 0.00 0.00 0.00 43 1012.0
20260501205500 22 0 0.0 0.0 0.00 0.00 0.00 46 1012.0
20260501204500 22 0 0.0 0.0 0.00 0.00 0.00 46 1012.0
20260501203459 22 168 1.6 1.6 0.00 0.00 0.00 49 1012.0
20260501202458 22 168 1.6 1.6 0.00 0.00 0.00 49 1013.0
20260501201457 22 0 0.0 0.0 0.00 0.00 0.00 46 1013.0
20260501200457 22 0 0.0 0.0 0.00 0.00 0.00 46 1013.0